This is the latest recevied weather packets stored in our database for station/object KO4DYK. If no packets are shown the sender has not sent any weather packets the latest 10 day(s).
| Time | Temp. | Humidity | Pressure | Rain* | Wind** | Luminosity | Snow |
|---|---|---|---|---|---|---|---|
| 1777730403 | 15.56° C | 64% | 1022.8 hPa | 0 mm | - | 361 W/m² | - |
| 1777730099 | 15° C | 66% | 1022.8 hPa | 0 mm | - | 360 W/m² | - |
| 1777729795 | 15° C | 69% | 1022.7 hPa | 0 mm | - | 357 W/m² | - |
| 1777729492 | 14.44° C | 72% | 1023 hPa | 0 mm | - | 292 W/m² | - |
| 1777729189 | 13.89° C | 75% | 1022.7 hPa | 0 mm | - | 284 W/m² | - |
| 1777728885 | 13.89° C | 83% | 1022.6 hPa | 0 mm | - | 317 W/m² | - |
| 1777728583 | 13.33° C | 86% | 1022.6 hPa | 0 mm | - | 225 W/m² | - |
| 1777728280 | 12.22° C | 91% | 1022.7 hPa | 0 mm | - | 154 W/m² | - |
| 1777727978 | 10.56° C | 95% | 1022.7 hPa | 0 mm | - | 116 W/m² | - |
| 1777727674 | 10° C | 99% | 1022.5 hPa | 0 mm | - | 57 W/m² | - |
| 1777727371 | 9.44° C | 99% | 1022.6 hPa | 0 mm | - | 98 W/m² | - |
| 1777727068 | 8.89° C | 99% | 1022.5 hPa | 0 mm | - | 51 W/m² | - |
| 1777726766 | 8.33° C | 99% | 1022.5 hPa | 0 mm | - | 48 W/m² | - |
| 1777726463 | 8.33° C | 99% | 1022.2 hPa | 0 mm | - | 46 W/m² | - |
| 1777726159 | 7.78° C | 99% | 1022.1 hPa | 0 mm | - | 45 W/m² | - |
| 1777725856 | 7.22° C | 99% | 1022.2 hPa | 0 mm | - | 44 W/m² | - |
| 1777725554 | 7.22° C | 99% | 1022.2 hPa | 0 mm | - | 43 W/m² | - |
| 1777725251 | 6.67° C | 99% | 1022.2 hPa | 0 mm | - | 41 W/m² | - |
| 1777724948 | 6.67° C | 99% | 1022.3 hPa | 0 mm | - | 39 W/m² | - |
| 1777724644 | 6.11° C | 99% | 1022.2 hPa | 0 mm | - | 43 W/m² | - |
| 1777724342 | 5.56° C | 99% | 1021.9 hPa | 0 mm | - | 42 W/m² | - |
| 1777724039 | 5.56° C | 99% | 1021.9 hPa | 0 mm | - | 39 W/m² | - |
| 1777723737 | 5° C | 99% | 1022.1 hPa | 0 mm | - | 35 W/m² | - |
| 1777723433 | 5° C | 99% | 1021.8 hPa | 0 mm | - | 32 W/m² | - |
| 1777723130 | 4.44° C | 99% | 1021.7 hPa | 0 mm | - | 29 W/m² | - |
* Rain latest hour (hover to see other rain measurements)
** Current wind speed in m/s (hover to see current wind gust speed)